Content
SEND FEEDBACK

Daily
Averages
Monthly
Summary
Canada

QUEBEC CITY, QUEBEC


Home > North America > Canada > Quebec
Elevation: 239 feet     Latitude: 46 48N     Longitude: 071 23W

WEATHER
 
SELECT A DAY
Number of Records: 197,080;   Date Range: 6/30/96 - 11/24/14
 
SHARE

PRINT THIS DATA

[ ← Previous Day ]
WEATHER ALMANAC - JANUARY 18, 2013
[ Next Day → ]
[ °C ]   °F
Weather ElementAverageHighLow
Temperature-3.7 °F5 °F (10:00 pm)-19 °F (7:00 am)
Dewpoint-16.1 °F (10:19 pm)-25.6 °F (3:00 am)
Humidity51.5 %71 % (7:00 am)38 % (10:00 am)
Barometer29.32 in30.32 in (10:00 am) (7:00 pm)
Wind Speed7.1 mph17.3 mph (12:00 pm)
Wind Gust23 mph (2:00 pm)
Weather ElementAverage
Visibility21 mi
Wind DirectionSW (230.6 °)

Weather ElementTotal
Precipitation---
Heating Degree Days72 (Base 65)
Averaged from 32 records on January 18, 2013
WEATHER CONDITIONS BREAKOUT
WIND DIRECTION BREAKOUT
WEATHER BY HOUR - JANUARY 18, 2013
[ °C ]   °F
Local TimeTemperatureDewpointHumidityBarometerVisibilityWind DirectionWind SpeedGust SpeedPrecipitationEventsConditions
1:00 AM-12.0 °F-19.0 °F55 %30.20 inWest (260°)4.6 mph
1:00 AM-11.2 °F-23.8 °F54 %30.21 in15.0 miWSW (240°)6.9 mphClear
2:00 AM-11.2 °F-23.8 °F54 %30.24 in15.0 miWest (270°)6.9 mphClear
3:00 AM-11.2 °F-25.6 °F49 %30.22 in15.0 miNNW (340°)2.3 mphClear
4:00 AM-18.0 °F-23.0 °F63 %30.22 inWest (260°)5.8 mph
4:00 AM-13.0 °F-25.6 °F53 %30.23 in15.0 miWest (270°)6.9 mphClear
5:00 AM-11.2 °F-25.6 °F49 %30.23 in15.0 miWest (270°)5.8 mphClear
6:00 AM-11.2 °F-25.6 °F49 %30.26 in15.0 miSW (230°)5.8 mphPartly Cloudy
7:00 AM-11.2 °F-25.6 °F49 %30.28 in30.0 miCalmPartly Cloudy
7:00 AM-19.0 °F-23.0 °F71 %30.27 inNorth (10°)1.2 mph
8:00 AM-13.0 °F-25.6 °F53 %30.30 in30.0 miSE (140°)3.5 mphPartly Cloudy
9:00 AM-7.6 °F-22.0 °F50 %30.31 in30.0 miWest (260°)8.1 mphPartly Cloudy
10:00 AM-6.0 °F-18.0 °F38 %30.32 inWSW (250°)8.1 mph
10:00 AM-5.8 °F-22.0 °F46 %30.32 in30.0 miWSW (250°)11.5 mphPartly Cloudy
11:00 AM-4.0 °F-20.2 °F46 %30.31 in30.0 miWSW (250°)10.4 mphPartly Cloudy
12:00 PM-0.4 °F-14.8 °F51 %30.27 in30.0 miSW (220°)17.3 mphPartly Cloudy
1:00 PM1.4 °F-13.0 °F51 %30.27 in30.0 miWSW (240°)12.7 mph18.4 mphMostly Cloudy
1:00 PM1.0 °F-10.0 °F43 %30.27 inWSW (250°)9.2 mph
2:00 PM3.2 °F-13.0 °F47 %30.26 in30.0 miWSW (240°)15.0 mph23.0 mphPartly Cloudy
3:00 PM3.2 °F-11.2 °F51 %30.27 in30.0 miWSW (240°)15.0 mph21.9 mphPartly Cloudy
4:00 PM3.0 °F-8.0 °F46 %30.26 inWSW (240°)9.2 mph
4:00 PM3.2 °F-11.2 °F51 %30.26 in30.0 miWSW (240°)16.1 mph21.9 mphPartly Cloudy
5:00 PM3.2 °F-11.2 °F51 %30.27 in15.0 miWSW (240°)5.8 mphPartly Cloudy
6:00 PM3.2 °F-11.2 °F51 %30.28 in15.0 miWSW (250°)5.8 mphClear
7:00 PM3.2 °F-11.2 °F51 %30.30 in15.0 miWSW (250°)8.1 mphClear
7:00 PM1.0 °F-8.0 °F51 %30.29 inWSW (250°)3.5 mph
8:00 PM3.2 °F-11.2 °F51 %30.30 in15.0 miWSW (240°)10.4 mphPartly Cloudy
9:00 PM3.2 °F-9.4 °F56 %30.29 in15.0 miWSW (240°)6.9 mphOvercast
10:00 PM3.0 °F-5.0 °F54 %30.26 inNW (310°)1.2 mph
10:00 PM5.0 °F-9.4 °F52 %30.26 in15.0 miCalmOvercast
10:19 PM3.2 °F0.0 °F15.0 miWest (280°)2.3 mphSnowLight Snow
11:00 PM3.2 °F-7.6 °F61 %30.24 in10.0 miNorth (350°)2.3 mphSnowLight Snow
Hourly data recorded from CYQB, located miles away from Quebec City, Quebec







STORIES FROM OUR PARTNERS